[[{"header":{"parameterUnit":"m.s-1","parameterCategory":1,"la1":30.2991,"la2":30.254,"lo1":-89.0895,"lo2":-89.0444,"dy":0.0017,"dx":0.0017,"nx":28,"ny":28,"refTime":"2024-10-14T09:00:00:Z","depth":0,"parameterNumber":2,"parameterNumberName":"U-component_of_WINDS"},"data":[0,0,0,0,0,0,0,0,0,0,0,0,0,0,0,0,0,0,0,0,0,0,0,0,0,0,0,0,0,0,0,0,0,0,0,0,0,0,0,0,0,0,0,0,0,0,0,0,0,0,0,0,0,0,0,0,0,0,0.9864,0.9864,0,0.9874,0.9874,0.9874,0.987,0.987,0.987,0.987,0.988,0.9881,0.9881,0,0,0,0,0,0,0,0,0,0,0,0,0,0.9843,0.9844,0.9864,0.9864,0.9864,0.9874,0.9874,0.9874,0.987,0.987,0.987,0.9869,0.988,0.9881,0.9881,0,0,0,0,0,0,0,0,0,0,0,0,0,0.9853,0.9844,0.9864,0.9863,0.9863,0.9874,0.9874,0.9874,0.987,0.987,0.987,0.9869,0.988,0.9881,0.9881,0.9893,0,0,0.9884,0.9884,0,0,0,0,0,0,0,0,0.9852,0.9853,0.9863,0.9863,0.9863,0.987,0.9871,0.988,0.987,0.9868,0.987,0.9869,0.9877,0.9878,0.9881,0.9893,0.9894,0.9884,0.9884,0.9884,0.9885,0,0,0,0,0,0,0,0.9851,0.9853,0.9868,0.9863,0.9864,0.9863,0.9864,0.9872,0.9874,0.9868,0.9868,0.9869,0.9877,0.988,0.9881,0.9894,0.9884,0.9884,0.9885,0.9885,0.9918,0.9919,0,0,0,0,0,0,0.9851,0.9852,0.9867,0.9868,0.9857,0.9864,0.9865,0.9869,0.9874,0.9875,0.9869,0.9869,0.9879,0.988,0.9881,0.9896,0.9884,0.9885,0.9886,0.9918,0.9918,0.9919,0,0,0,0,0,0,0.985,0.9852,0.9867,0.986,0.9862,0.9865,0.9869,0.9869,0.9872,0.9875,0.9876,0.9872,0.9879,0.988,0.989,0.9896,0.9886,0.9886,0.9917,0.9918,0.9919,0.9925,0,0,0,0,0,0,0.985,0.9852,0.9856,0.986,0.9862,0.9875,0.9869,0.9869,0.9873,0.9872,0.9878,0.9878,0.9879,0.9889,0.9891,0.9897,0.9887,0.9917,0.9918,0.9919,0.9924,0.9926,0.9927,0,0,0,0,0,0.9849,0.9857,0.9856,0.9858,0.9867,0.9875,0.9877,0.9877,0.9873,0.9878,0.988,0.9878,0.9896,0.989,0.9892,0.9899,0.9916,0.9918,0.9918,0.9924,0.9925,0.9927,0,0,0,0,0,0,0.9852,0.9857,0.9856,0.9866,0.987,0.9875,0.988,0.9879,0.9884,0.9884,0.9884,0.9886,0.9896,0.9899,0.9893,0.9911,0.9906,0.9907,0.9909,0.9911,0.9912,0.9911,0.9887,0,0,0,0,0,0.9854,0.986,0.9864,0.9872,0.9875,0.9877,0.9881,0.9881,0.9886,0.9887,0.9891,0.9896,0.9903,0.9907,0.9913,0.9925,0.9927,0.9931,0.9932,0.9933,0.9934,0.9942,0.9944,0.9922,0.9922,0.9922,0,0,0.9858,0.9861,0.9865,0.9873,0.9877,0.9883,0.9879,0.9886,0.9891,0.9889,0.9898,0.9901,0.9907,0.9918,0.9923,0.9921,0.9941,0.9935,0.9935,0.9936,0.9943,0.9945,0.9947,0.9923,0.9923,0.9923,0,0,0.9868,0.9871,0.9879,0.9883,0.9889,0.989,0.9892,0.9898,0.9899,0.9909,0.9908,0.9915,0.9926,0.9931,0.9935,0.9949,0.9948,0.9952,0.9959,0.9966,0.9968,0.997,0.9975,0.9977,0.9953,0.9953,0.9953,0,0.9872,0.9882,0.9883,0.989,0.9895,0.9894,0.9902,0.9906,0.9913,0.9916,0.9913,0.9929,0.9933,0.9946,0.9949,0.9952,0.9955,0.995,0.9968,0.9969,0.9971,0.9976,0.9978,0.9953,0.9953,0.9953,0.9953,0,0.9887,0.9894,0.9899,0.9907,0.9912,0.992,0.9923,0.9928,0.9928,0.9931,0.9942,0.9947,0.9955,0.9958,0.9958,0.9972,0.997,0.9967,0.9962,0.9973,0.9978,0.998,0.9954,0.9954,0.9954,0.9954,0,0,0.9897,0.9907,0.9909,0.9913,0.9921,0.9926,0.9935,0.9943,0.9948,0.9954,0.9961,0.9972,0.9971,0.9975,0.9976,0.9983,0.9995,0.998,0.998,0.9982,1.0011,1.0013,1.0015,0.9995,0.9995,0.9995,1.0011,0,0.9909,0.9923,0.9925,0.9938,0.9946,0.9946,0.9954,0.9959,0.9963,0.997,0.9974,0.9981,0.9978,0.9981,0.9988,0.9992,1.0001,0.9991,1.0002,1.0003,1.0,1.0018,1.0019,1.0033,1.0013,1.0013,1.0013,0,0.9923,0.9929,0.9943,0.9951,0.9954,0.9961,0.9969,0.9976,0.9983,0.9986,0.9992,0.9992,1.0003,0.9997,1.0012,1.0005,1.001,1.0013,1.0014,1.0014,1.0008,1.0019,1.0037,1.0039,1.0016,1.0016,1.0016,0,0.9929,0.9942,0.9952,0.9956,0.9965,0.997,0.9974,0.9981,0.9987,0.9995,0.9998,1.0007,1.0012,1.0019,1.0023,1.0019,1.0038,1.0032,1.004,1.004,1.0043,1.0043,1.0063,1.0047,1.0047,1.0047,1.0047,0,0.9941,0.995,0.9956,0.9962,0.9972,0.9976,0.9986,0.999,0.9997,1.0004,1.0006,1.0013,1.0018,1.0026,1.0029,1.0041,1.0044,1.0046,1.0047,1.0046,1.0045,1.0048,1.0047,1.0048,1.0047,1.0047,1.0047,0,0.995,0.9954,0.9965,0.9974,0.9976,0.9984,0.9991,0.9998,1.0002,1.0012,1.0015,1.0021,1.0031,1.0036,1.0049,1.0051,1.0065,1.0065,1.0062,1.0062,1.007,1.0069,1.0092,1.0095,1.0078,1.0078,1.0078,0,0.9956,0.9963,0.9973,0.9978,0.9983,0.9991,0.9997,1.0001,1.0007,1.0017,1.0023,1.0034,1.0042,1.0059,1.0065,1.0075,1.0075,1.0083,1.0076,1.0076,1.0075,1.0075,1.0076,1.0083,1.0084,1.0084,1.0084,0,0.9968,0.9971,0.9978,0.9988,0.9995,1.0002,1.001,1.0014,1.002,1.0027,1.0038,1.0044,1.0058,1.0069,1.008,1.0085,1.0086,1.0086,1.0088,1.0087,1.0085,1.0086,1.0065,1.0085,1.0085,1.0085,1.0085,1.0085,0.9976,0.9982,0.9991,1.0,1.0006,1.0014,1.0021,1.0027,1.0035,1.0047,1.0049,1.0061,1.007,1.0085,1.009,1.01,1.0098,1.0102,1.0102,1.0103,1.0104,1.0084,1.0102,1.0102,1.0102,1.0102,1.0102,0,0.9988,0.9994,1.0002,1.0013,1.0021,1.0022,1.0031,1.0037,1.0047,1.0056,1.0064,1.0077,1.0088,1.0096,1.0108,1.0114,1.0115,1.0117,1.0116,1.0118,1.0104,1.0101,1.0116,1.0116,1.0116,1.0116,1.0116,1.0116,0.9995,1.0006,1.001,1.0025,1.0031,1.0042,1.0047,1.0055,1.0062,1.0076,1.0085,1.009,1.0099,1.0111,1.0122,1.0124,1.0128,1.013,1.0133,1.012,1.0118,1.0117,1.0114,1.0131,1.0131,1.0145,1.0145,1.0145]},{"header":{"parameterUnit":"m.s-1","parameterCategory":1,"la1":30.2991,"la2":30.254,"lo1":-89.0895,"lo2":-89.0444,"dy":0.0017,"dx":0.0017,"nx":28,"ny":28,"refTime":"2024-10-14T09:00:00:Z","depth":0,"parameterNumber":3,"parameterNumberName":"V-component_of_WINDS"},"data":[0,0,0,0,0,0,0,0,0,0,0,0,0,0,0,0,0,0,0,0,0,0,0,0,0,0,0,0,0,0,0,0,0,0,0,0,0,0,0,0,0,0,0,0,0,0,0,0,0,0,0,0,0,0,0,0,0,0,-2.4347,-2.4348,0,-2.4378,-2.4379,-2.4379,-2.4399,-2.4399,-2.44,-2.44,-2.443,-2.4431,-2.4432,0,0,0,0,0,0,0,0,0,0,0,0,0,-2.4307,-2.4308,-2.4347,-2.4348,-2.4348,-2.4378,-2.4379,-2.4379,-2.4399,-2.4399,-2.44,-2.44,-2.443,-2.4431,-2.4432,0,0,0,0,0,0,0,0,0,0,0,0,0,-2.433,-2.4308,-2.4347,-2.4362,-2.4364,-2.4378,-2.4379,-2.4379,-2.4399,-2.4399,-2.44,-2.44,-2.443,-2.4431,-2.4432,-2.4434,0,0,-2.4435,-2.4436,0,0,0,0,0,0,0,0,-2.4329,-2.4331,-2.4359,-2.4361,-2.4363,-2.4385,-2.4376,-2.4398,-2.4399,-2.4386,-2.44,-2.44,-2.4415,-2.4417,-2.4423,-2.4436,-2.4437,-2.4435,-2.4436,-2.4436,-2.4437,0,0,0,0,0,0,0,-2.4327,-2.433,-2.436,-2.436,-2.4362,-2.4367,-2.4371,-2.438,-2.4399,-2.4387,-2.4388,-2.4392,-2.4416,-2.4422,-2.4424,-2.4437,-2.4435,-2.4436,-2.4437,-2.4437,-2.4457,-2.4456,0,0,0,0,0,0,-2.4323,-2.4329,-2.4359,-2.4361,-2.4346,-2.4368,-2.4372,-2.4378,-2.4399,-2.4402,-2.4392,-2.4393,-2.442,-2.4422,-2.4425,-2.443,-2.4436,-2.4437,-2.4438,-2.4457,-2.4456,-2.4456,0,0,0,0,0,0,-2.4322,-2.4326,-2.4357,-2.4345,-2.435,-2.4368,-2.4375,-2.4378,-2.4384,-2.4402,-2.4406,-2.4394,-2.442,-2.4423,-2.4432,-2.4432,-2.4438,-2.4439,-2.4457,-2.4457,-2.4456,-2.4441,0,0,0,0,0,0,-2.4321,-2.4325,-2.4326,-2.4345,-2.435,-2.4364,-2.4375,-2.4379,-2.4386,-2.4387,-2.4405,-2.4408,-2.442,-2.4431,-2.4433,-2.4433,-2.4439,-2.4457,-2.4457,-2.4456,-2.4441,-2.444,-2.4439,0,0,0,0,0,-2.432,-2.4319,-2.4326,-2.4329,-2.4351,-2.4364,-2.4367,-2.4381,-2.4385,-2.4387,-2.4399,-2.4408,-2.4431,-2.4431,-2.4435,-2.4435,-2.4457,-2.4457,-2.4456,-2.4442,-2.444,-2.4439,0,0,0,0,0,0,-2.4298,-2.4322,-2.4329,-2.4335,-2.4348,-2.4367,-2.4369,-2.4378,-2.4389,-2.439,-2.4407,-2.4411,-2.4419,-2.4428,-2.4427,-2.4439,-2.4445,-2.4446,-2.4433,-2.4432,-2.4431,-2.4428,-2.444,0,0,0,0,0,-2.4295,-2.4303,-2.4323,-2.4326,-2.4332,-2.435,-2.4356,-2.4366,-2.4379,-2.4384,-2.4397,-2.4409,-2.442,-2.4426,-2.4437,-2.4443,-2.4448,-2.4445,-2.4444,-2.4442,-2.4443,-2.4449,-2.4448,-2.4456,-2.4456,-2.4456,0,0,-2.4287,-2.4301,-2.4304,-2.4323,-2.4333,-2.4342,-2.4354,-2.4362,-2.4369,-2.4385,-2.4395,-2.4405,-2.442,-2.4429,-2.4433,-2.4436,-2.4442,-2.4442,-2.4441,-2.4442,-2.4448,-2.4448,-2.4447,-2.4455,-2.4455,-2.4456,0,0,-2.4277,-2.4287,-2.4293,-2.4304,-2.432,-2.4332,-2.4333,-2.4352,-2.436,-2.437,-2.4384,-2.4392,-2.4409,-2.442,-2.4428,-2.4425,-2.4435,-2.4428,-2.4422,-2.4427,-2.4427,-2.4426,-2.4427,-2.4427,-2.4428,-2.4428,-2.4428,0,-2.4264,-2.4278,-2.4294,-2.4302,-2.431,-2.4327,-2.4333,-2.4343,-2.4361,-2.4367,-2.4371,-2.4395,-2.4406,-2.4418,-2.4418,-2.4423,-2.4426,-2.4426,-2.4426,-2.4425,-2.4425,-2.4426,-2.4426,-2.4428,-2.4428,-2.4428,-2.4428,0,-2.4263,-2.4272,-2.4275,-2.4294,-2.4302,-2.4309,-2.4327,-2.4334,-2.4344,-2.4356,-2.4367,-2.4382,-2.4396,-2.44,-2.4409,-2.4414,-2.4416,-2.4422,-2.4429,-2.4424,-2.4424,-2.4425,-2.4426,-2.4427,-2.4427,-2.4427,0,0,-2.4239,-2.4269,-2.4269,-2.4279,-2.43,-2.4307,-2.4316,-2.4331,-2.4338,-2.4351,-2.4359,-2.4375,-2.4382,-2.4391,-2.4401,-2.4406,-2.4405,-2.4413,-2.4413,-2.4412,-2.4414,-2.4409,-2.4409,-2.4412,-2.4412,-2.4412,-2.4413,0,-2.4233,-2.4249,-2.4265,-2.4275,-2.4285,-2.4302,-2.431,-2.4324,-2.4336,-2.4347,-2.436,-2.4371,-2.4379,-2.4385,-2.439,-2.4404,-2.4406,-2.4404,-2.4421,-2.4421,-2.4417,-2.4409,-2.4404,-2.4404,-2.4413,-2.4413,-2.4413,0,-2.4227,-2.4241,-2.4253,-2.4275,-2.428,-2.4286,-2.4303,-2.4312,-2.4329,-2.4338,-2.4349,-2.4361,-2.4372,-2.4378,-2.4394,-2.4393,-2.44,-2.4409,-2.4409,-2.4411,-2.4417,-2.4412,-2.4404,-2.4404,-2.4414,-2.4414,-2.4414,0,-2.421,-2.4231,-2.4242,-2.425,-2.4275,-2.428,-2.4291,-2.4308,-2.4317,-2.4331,-2.4338,-2.4353,-2.4362,-2.4374,-2.439,-2.4392,-2.4405,-2.4412,-2.4413,-2.4413,-2.4415,-2.4415,-2.4409,-2.4419,-2.4419,-2.4419,-2.4419,0,-2.4201,-2.4208,-2.4235,-2.4241,-2.425,-2.4269,-2.4277,-2.429,-2.4306,-2.4316,-2.4331,-2.434,-2.4361,-2.4373,-2.4386,-2.4399,-2.4402,-2.441,-2.4413,-2.4409,-2.4408,-2.4414,-2.4415,-2.4419,-2.4419,-2.4419,-2.4419,0,-2.4183,-2.4201,-2.4214,-2.4238,-2.4244,-2.425,-2.4271,-2.4278,-2.4292,-2.4305,-2.4309,-2.433,-2.4345,-2.4363,-2.4384,-2.4393,-2.4404,-2.4409,-2.4399,-2.4401,-2.4402,-2.4402,-2.44,-2.4402,-2.441,-2.441,-2.441,0,-2.4177,-2.4183,-2.4208,-2.4216,-2.4227,-2.4239,-2.4249,-2.4269,-2.4278,-2.43,-2.4305,-2.4322,-2.4336,-2.4359,-2.4377,-2.4394,-2.4399,-2.4398,-2.4402,-2.4398,-2.4401,-2.44,-2.4402,-2.4396,-2.4396,-2.4396,-2.4396,0,-2.4164,-2.4173,-2.4186,-2.4204,-2.4216,-2.423,-2.4245,-2.4251,-2.4274,-2.4284,-2.43,-2.4311,-2.4334,-2.435,-2.4369,-2.4381,-2.4393,-2.4395,-2.4396,-2.4392,-2.4386,-2.439,-2.4396,-2.4394,-2.4395,-2.4395,-2.4395,-2.4395,-2.4152,-2.4159,-2.4179,-2.4194,-2.4208,-2.4222,-2.4231,-2.4247,-2.4261,-2.4281,-2.4291,-2.4308,-2.4327,-2.4354,-2.4366,-2.438,-2.4383,-2.4385,-2.4386,-2.4386,-2.4385,-2.4384,-2.4383,-2.4383,-2.4383,-2.4383,-2.4383,0,-2.4141,-2.4155,-2.4169,-2.419,-2.4203,-2.4214,-2.4232,-2.4241,-2.4256,-2.4273,-2.4287,-2.4307,-2.4324,-2.4344,-2.4362,-2.437,-2.4376,-2.4374,-2.4374,-2.4377,-2.438,-2.4378,-2.4369,-2.4369,-2.4369,-2.4369,-2.4369,-2.4369,-2.4136,-2.415,-2.4162,-2.4182,-2.4197,-2.4213,-2.4223,-2.4237,-2.4251,-2.4272,-2.4287,-2.43,-2.4319,-2.4339,-2.4356,-2.4362,-2.4368,-2.4365,-2.4372,-2.4375,-2.4376,-2.4377,-2.4375,-2.4366,-2.4366,-2.4368,-2.4368,-2.4368]}]]